Weather History for Tampa Macdill AFB, FL

Change the Weather History Date:

Monday, December 31, 2012

  Actual Average Record
Temperature  
Mean Temperature 59 °F -  
Max Temperature 74 °F 67 °F 80 °F (2010)
Min Temperature 44 °F 50 °F 44 °F (2012)
Degree Days  
Heating Degree Days 6    
Growing Degree Days 9 (Base 50)    
Moisture  
Dew Point 52 °F    
Average Humidity 88    
Maximum Humidity 100    
Minimum Humidity 54    
Precipitation  
Precipitation 0.00 in - - ()
Sea Level Pressure  
Sea Level Pressure 30.26 in    
Wind  
Wind Speed 5 mph (NE)    
Max Wind Speed 12 mph    
Max Gust Speed -    
Visibility 7 miles    
Events      
Averages and records for this station are not official NWS values.
T = Trace of Precipitation, MM = Missing Value Source: NWS Daily Summary

Daily Weather History Graph

Daily Weather History Graph

Search for Another Location

Airport:

Trip Planner

Search our weather history database for the weather conditions in past years. The results will help you decide how hot, cold, wet, or windy it might be!

Date:

Astronomy

Dec. 31, 2012 Rise Set
Actual Time 7:21 AM EST 5:45 PM EST
Civil Twilight 6:55 AM EST 6:11 PM EST
Nautical Twilight 6:26 AM EST 6:40 PM EST
Astronomical Twilight 5:57 AM EST 7:09 PM EST
Moon 8:56 PM EST (12/31) 9:18 AM EST (12/31)
Length of Visible Light 11h 16m
Length of Day
10h 24m
Waning Gibbous, 90% of the Moon is Illuminated
Dec 31
Waning Gibbous
Jan 4
Last Quarter
Jan 11
New
Jan 18
First Quarter
Jan 26
Full

Hourly Weather History & Observations

Time (EST) Temp. Windchill Dew Point Humidity Pressure Visibility Wind Dir Wind Speed Gust Speed Precip Events Conditions
12:55 AM 44.4 °F 40.5 °F 42.8 °F 94% 30.34 in 10.0 mi NE 6.9 mph - N/A   Clear
1:55 AM 44.2 °F 38.8 °F 43.5 °F 97% 30.32 in 10.0 mi ENE 10.4 mph - N/A   Clear
2:55 AM 44.6 °F 42.2 °F 43.9 °F 97% 30.32 in 10.0 mi NE 4.6 mph - N/A   Clear
3:55 AM 44.1 °F 39.5 °F 43.5 °F 98% 30.31 in 10.0 mi NE 8.1 mph - N/A   Clear
4:55 AM 44.2 °F 41.0 °F 43.7 °F 98% 30.31 in 10.0 mi ENE 5.8 mph - N/A   Clear
5:55 AM 44.6 °F 38.8 °F 44.2 °F 99% 30.31 in 10.0 mi East 11.5 mph - N/A   Partly Cloudy
6:55 AM 45.0 °F 39.7 °F 44.8 °F 99% 30.31 in 10.0 mi ENE 10.4 mph - N/A   Clear
7:55 AM 46.0 °F 41.9 °F 45.9 °F 99% 30.32 in 10.0 mi ENE 8.1 mph - N/A   Clear
8:55 AM 51.6 °F - 51.3 °F 99% 30.34 in 10.0 mi East 10.4 mph - N/A   Clear
9:55 AM 57.6 °F - 51.3 °F 79% 30.35 in 10.0 mi East 8.1 mph - N/A   Clear
10:55 AM 63.5 °F - 54.5 °F 72% 30.37 in 10.0 mi NE 5.8 mph - N/A   Clear
11:55 AM 68.9 °F - 55.0 °F 61% 30.32 in 10.0 mi ESE 4.6 mph - N/A   Clear
12:55 PM 72.9 °F - 58.3 °F 60% 30.28 in 10.0 mi Variable 4.6 mph - N/A   Clear
1:55 PM 73.6 °F - 56.8 °F 56% 30.25 in 10.0 mi SSW 4.6 mph - N/A   Clear
2:55 PM 74.5 °F - 56.8 °F 54% 30.21 in 10.0 mi South 3.5 mph - N/A   Clear
3:55 PM 72.5 °F - 57.4 °F 59% 30.21 in 10.0 mi Calm Calm - N/A   Clear
4:55 PM 69.3 °F - 57.4 °F 66% 30.22 in 10.0 mi North 4.6 mph - N/A   Clear
5:55 PM 65.7 °F - 56.7 °F 73% 30.21 in 10.0 mi North 4.6 mph - N/A   Clear
6:55 PM 61.3 °F - 57.4 °F 87% 30.22 in 10.0 mi NNW 4.6 mph - N/A   Clear
7:55 PM 59.4 °F - 56.8 °F 91% 30.23 in 10.0 mi North 4.6 mph - N/A   Clear
8:31 PM 57.2 °F - 55.4 °F 94% 30.23 in 5.0 mi Calm Calm - N/A   Clear
8:32 PM 57.2 °F - 55.4 °F 94% 30.23 in 5.0 mi Calm Calm - N/A   Clear
8:39 PM 57.2 °F - 55.4 °F 94% 30.23 in 5.0 mi Calm Calm - N/A   Clear
8:45 PM 57.2 °F - 55.4 °F 94% 30.23 in 6.0 mi Calm Calm - N/A   Clear
8:55 PM 55.9 °F - 53.6 °F 92% 30.23 in 7.0 mi Calm Calm - N/A   Clear
8:59 PM 55.4 °F - 53.6 °F 94% 30.23 in 4.0 mi Calm Calm - N/A   Clear
9:03 PM 55.4 °F - 53.6 °F 94% 30.23 in 3.0 mi NNE 4.6 mph - N/A   Clear
9:04 PM 55.4 °F - 53.6 °F 94% 30.23 in 3.0 mi NNE 4.6 mph - N/A   Clear
9:14 PM 55.4 °F - 53.6 °F 94% 30.24 in 4.0 mi NNE 5.8 mph - N/A   Clear
9:15 PM 55.4 °F - 53.6 °F 94% 30.24 in 4.0 mi NNE 5.8 mph - N/A   Clear
9:27 PM 55.4 °F - 53.6 °F 94% 30.23 in 6.0 mi NNE 5.8 mph - N/A   Clear
9:30 PM 55.4 °F - 55.4 °F 100% 30.23 in 6.0 mi NNE 4.6 mph - N/A   Clear
9:44 PM 57.2 °F - 55.4 °F 94% 30.23 in 5.0 mi Calm Calm - N/A   Clear
9:50 PM 57.2 °F - 55.4 °F 94% 30.23 in 4.0 mi Calm Calm - N/A   Clear
9:55 PM 56.8 °F - 54.3 °F 91% 30.23 in 3.0 mi Calm Calm - N/A   Clear
10:55 PM 53.8 °F - 51.4 °F 92% 30.23 in 4.0 mi Calm Calm - N/A   Partly Cloudy
11:15 PM 53.6 °F - 51.8 °F 94% 30.23 in 5.0 mi ENE 3.5 mph - N/A   Partly Cloudy
11:39 PM 53.6 °F - 51.8 °F 94% 30.23 in 4.0 mi Calm Calm - N/A   Clear
11:54 PM 53.6 °F - 50.0 °F 88% 30.23 in 4.0 mi Calm Calm - N/A   Clear
11:55 PM 52.9 °F - 50.7 °F 92% 30.23 in 4.0 mi Calm Calm - N/A   Clear